Wind_Speed
13 10 11 15 24 26 26 29 31 31 32 32 33 30 24 21 20 17 18 18 11 8 9 14 17 17 20 22 18 18 24 24 22 23 26 33 37 37 37 34 29 28 31 33 32 27 25 27 29 30 30 30 30 30 30 32 34 34 33 32 31 30 30 32 32 31 30 27 25 25 25 25 25 25 25 24 24 23 23 23 23 23 23 23 24 26 26
14 13 13 14 22 26 25 28 30 29 31 30 29 29 27 26 26 24 22 17 10 11 9 10 16 19 19 19 16 15 19 21 21 21 23 29 33 33 33 30 26 26 31 32 30 27 26 28 29 29 29 30 30 29 29 30 32 32 32 31 31 31 31 32 32 32 29 26 26 26 25 25 25 25 25 25 24 23 23 23 23 23 22 22 24 25 26
13 15 16 15 19 24 26 28 29 29 29 30 31 31 27 26 28 28 25 17 9 12 11 5 15 23 19 17 16 13 13 17 19 20 21 24 27 28 29 28 26 28 31 30 28 27 27 28 28 27 28 29 29 28 27 28 30 30 31 31 31 32 32 32 32 31 28 27 27 26 25 25 26 26 26 26 24 22 23 23 23 23 22 23 25 26 27
12 15 16 14 16 21 26 27 28 29 30 31 33 31 27 26 27 27 24 18 12 16 16 11 16 19 14 14 16 12 9 13 17 18 18 20 23 26 28 28 26 28 29 28 28 28 27 27 28 27 28 29 28 26 25 26 28 29 29 30 31 32 32 31 32 30 28 27 27 26 24 25 26 26 27 26 24 23 23 22 23 24 23 24 25 26 27
10 13 15 13 12 15 23 30 31 31 32 32 32 31 29 28 28 26 23 20 17 17 16 17 19 16 8 8 12 11 9 11 15 16 16 16 18 22 25 26 27 28 29 27 28 29 28 27 27 27 28 28 26 24 24 25 27 28 28 29 31 32 32 31 31 29 28 28 28 25 24 25 26 27 27 26 24 23 23 23 24 24 23 24 24 23 23
8 9 11 11 9 9 15 24 29 31 32 32 31 32 33 32 31 28 25 22 21 19 15 15 17 17 11 8 11 13 13 12 12 14 14 14 15 19 23 27 29 29 30 29 29 29 27 26 26 27 28 27 25 23 23 24 26 27 28 29 31 32 31 30 29 29 30 29 27 24 24 25 26 26 26 26 25 24 24 25 25 24 23 23 23 22 20
9 8 6 5 7 10 12 14 19 26 29 31 31 32 32 32 31 29 27 24 22 22 21 17 14 13 12 13 14 15 16 16 15 15 13 13 14 16 20 26 29 29 30 31 31 29 26 24 26 28 28 26 24 23 23 23 25 26 28 29 30 30 30 29 30 30 30 29 26 25 25 25 25 26 28 28 27 26 25 26 26 26 26 24 23 21 21
9 5 2 1 8 15 16 15 16 22 27 29 31 31 31 31 30 29 29 27 22 22 24 21 16 14 15 18 19 16 15 18 20 19 17 15 14 15 18 22 26 28 30 32 29 26 24 25 27 28 28 25 23 22 22 24 26 27 28 29 29 29 29 30 30 31 30 28 26 25 25 24 25 27 28 28 28 27 27 27 27 26 26 25 23 22 22
5 3 4 9 16 16 14 14 14 17 21 25 28 29 29 30 30 29 30 29 26 25 24 23 22 19 19 24 23 15 12 15 16 18 20 15 11 13 19 21 23 28 31 31 27 23 23 26 28 28 27 25 23 22 23 25 25 25 26 27 27 28 28 29 30 31 30 27 26 25 24 23 25 27 28 28 28 28 27 26 26 25 24 24 24 24 23
5 6 8 10 11 10 6 10 13 13 13 17 22 24 25 27 28 29 29 29 30 29 28 28 25 21 22 26 22 14 15 18 16 16 20 15 9 14 21 20 20 25 29 29 26 23 24 27 29 27 25 23 22 22 23 24 23 23 25 27 27 27 27 28 30 30 28 26 25 25 24 25 26 28 28 28 28 29 27 25 24 24 23 24 26 27 24
9 8 7 5 5 7 5 5 13 12 8 10 16 17 20 22 25 27 28 28 29 30 31 30 26 23 25 24 19 16 20 22 19 19 19 14 12 16 21 17 18 23 25 26 26 26 26 28 28 25 23 22 22 22 22 20 20 21 24 27 27 26 26 27 28 27 26 25 26 26 26 27 28 29 29 28 28 29 28 25 25 26 26 26 28 28 24
9 9 10 8 8 10 9 4 10 9 5 8 12 12 14 17 20 23 27 28 29 29 29 29 28 27 25 21 18 18 18 17 20 22 20 17 17 18 18 18 19 19 18 21 23 24 26 27 26 24 23 23 23 21 19 18 19 21 23 25 26 26 26 26 26 26 26 26 27 27 28 28 29 29 29 28 27 28 28 26 26 27 27 27 29 27 25
9 10 12 12 13 14 12 8 7 4 4 10 13 12 12 16 19 22 25 27 27 27 28 28 27 26 23 21 20 18 15 16 20 21 18 17 17 17 19 21 20 17 17 20 22 23 24 25 25 24 23 22 20 18 17 17 18 20 22 24 25 26 26 25 25 26 27 28 28 29 28 29 28 28 28 27 26 26 25 24 25 26 26 25 26 27 27
9 11 12 12 13 13 9 6 5 2 5 10 11 12 12 14 18 23 26 25 24 25 26 25 24 24 24 24 23 19 17 18 18 16 14 12 12 16 21 22 21 21 22 23 22 23 24 24 24 23 22 20 19 17 17 18 18 19 21 22 23 24 24 25 25 26 27 28 29 28 27 27 26 25 26 27 25 24 23 24 26 28 27 25 26 28 28
7 9 9 7 8 9 6 4 2 4 7 7 6 8 10 10 14 21 26 24 22 23 23 22 24 24 22 21 22 21 19 18 16 14 12 10 12 18 22 22 22 24 26 25 24 24 24 23 22 21 21 20 19 18 18 18 18 19 20 20 21 22 23 23 24 25 26 27 27 26 26 25 25 25 27 27 25 24 26 29 28 26 26 28 30 28 24
6 7 6 6 8 8 8 6 3 6 8 5 2 4 7 8 11 16 21 23 21 19 21 22 23 22 20 20 20 21 20 19 16 15 14 12 14 18 20 20 22 24 25 25 23 23 22 21 21 22 21 20 19 19 19 18 19 19 19 19 21 22 22 22 22 24 26 25 25 25 25 25 26 27 27 27 26 27 29 31 29 27 29 30 26 20 16
11 10 7 9 11 7 4 3 2 5 5 6 8 3 2 3 6 10 16 20 18 17 19 22 19 17 19 21 20 20 19 17 16 17 16 15 15 16 18 19 19 20 21 20 20 20 21 21 22 22 21 20 19 18 18 18 19 19 19 20 21 21 22 22 22 23 22 23 24 24 25 25 26 26 26 26 28 29 30 31 30 30 30 25 18 14 13
14 12 9 9 11 7 2 1 3 5 6 8 10 7 7 6 3 7 12 16 17 17 20 21 18 17 18 18 17 17 17 16 18 20 21 21 20 19 20 19 19 19 18 17 18 19 20 21 21 20 19 18 17 17 17 18 19 18 19 20 20 20 20 19 19 19 20 22 23 23 23 23 23 24 25 27 29 31 31 31 30 29 26 20 16 14 13
10 9 7 8 10 8 5 4 3 3 5 8 11 10 11 11 7 6 8 10 14 17 19 19 18 17 17 15 14 15 16 17 21 23 26 27 25 22 22 22 20 19 19 19 19 19 19 19 19 19 19 18 18 18 18 18 18 19 19 19 18 18 17 16 17 20 22 23 23 23 23 23 23 23 25 26 28 30 29 27 26 24 21 18 17 16 13
13 12 7 4 6 8 8 8 5 3 3 5 9 7 8 10 11 11 9 7 10 13 15 16 15 14 14 14 13 13 14 18 22 26 28 28 24 21 22 21 19 19 20 21 20 20 20 20 19 19 20 20 20 20 20 19 19 19 18 18 17 17 17 18 20 22 23 23 23 24 24 24 23 23 23 24 25 25 23 23 23 22 20 19 20 18 16
13 13 9 4 4 5 8 9 9 8 8 5 5 6 6 8 12 13 12 10 8 9 11 11 12 13 12 13 14 13 13 14 19 25 28 27 22 19 18 18 18 19 20 22 22 21 20 20 20 20 21 21 21 21 20 19 20 19 18 18 19 19 20 21 22 23 24 24 24 25 25 24 24 23 22 22 21 21 22 23 23 23 20 19 19 18 18
9 8 7 5 5 5 7 8 8 7 9 8 2 5 7 7 9 11 11 12 11 9 8 7 7 8 9 9 11 13 13 14 18 23 25 24 22 18 16 15 16 16 16 17 20 20 20 20 20 20 21 21 21 20 19 19 19 20 19 20 20 21 22 23 23 24 25 24 24 23 22 22 22 21 21 20 19 20 23 24 24 23 21 20 20 21 22
12 10 8 7 8 10 10 6 4 4 8 10 8 6 3 6 8 9 9 9 10 11 9 8 6 4 5 5 5 7 9 11 14 16 17 18 17 15 13 13 14 13 13 13 15 16 18 19 20 21 22 22 21 20 20 21 21 22 22 22 23 24 24 24 25 26 25 23 22 20 19 19 19 19 20 20 19 18 19 20 21 22 23 23 23 23 23
16 15 12 10 10 11 9 6 5 4 5 6 7 8 6 2 5 5 4 4 5 6 9 10 8 6 5 5 5 5 5 5 6 8 9 12 11 10 12 13 13 13 13 13 13 14 15 16 18 21 23 24 24 23 23 25 25 24 24 25 26 26 26 26 26 25 24 23 22 20 19 20 20 19 19 20 20 18 16 16 18 21 22 22 21 21 23
15 15 14 13 13 11 8 6 5 5 5 6 6 5 5 5 5 3 1 2 2 1 3 5 7 7 6 4 5 6 5 4 4 4 6 9 12 12 13 14 15 15 15 15 15 15 16 17 19 20 20 22 24 25 26 27 27 26 26 27 28 28 27 26 25 24 24 24 23 22 22 21 21 20 20 19 17 16 17 18 19 21 22 21 21 22 23
11 11 11 10 11 11 9 7 6 6 7 7 7 7 7 6 4 3 3 3 3 4 4 3 3 3 3 3 2 3 4 4 5 5 5 7 10 11 12 13 14 15 15 16 17 18 19 20 21 21 21 22 24 27 28 28 28 29 29 29 30 29 26 24 24 24 25 25 23 22 22 21 20 20 19 17 15 16 19 20 21 21 21 20 20 21 22
10 9 8 7 6 7 7 6 5 5 6 7 6 7 8 7 5 3 2 2 2 2 4 5 6 6 5 4 3 2 1 1 2 4 6 7 8 10 11 11 12 13 14 16 17 18 18 19 18 19 21 23 25 27 29 29 30 31 31 31 31 30 26 25 26 26 25 24 23 22 21 21 20 20 19 17 16 19 22 21 21 22 22 21 21 21 22
5 3 5 6 5 5 6 6 5 5 5 6 7 6 7 8 8 5 2 2 3 3 3 4 6 6 6 6 5 6 5 4 3 2 3 5 7 8 10 11 11 12 14 16 17 17 17 18 18 19 21 23 24 26 28 29 30 32 32 33 32 30 28 28 29 28 25 23 21 21 21 20 20 21 20 18 19 22 22 19 18 19 19 20 20 21 22
7 5 5 6 6 6 6 6 5 6 5 6 6 7 7 9 9 5 3 4 5 4 4 5 5 5 6 6 6 7 9 9 8 7 6 6 7 8 8 10 11 11 12 13 14 14 15 17 19 21 23 23 24 26 28 29 32 33 34 33 32 32 32 33 30 26 22 19 19 20 20 21 22 22 21 19 21 22 20 18 18 20 19 18 19 21 22
13 7 5 5 6 7 7 7 7 7 8 8 7 5 6 8 8 5 5 7 8 7 8 7 6 7 8 9 9 9 10 11 12 12 11 9 9 10 10 10 10 11 11 12 13 14 16 18 20 22 23 24 25 27 29 31 34 35 32 28 27 30 31 30 27 23 19 18 19 20 20 22 22 21 20 21 22 22 20 20 21 22 21 20 20 20 21
15 12 9 7 6 5 6 8 8 7 9 11 9 5 3 4 5 6 8 9 9 10 11 10 9 10 10 10 11 12 12 12 13 15 14 13 12 11 12 12 12 12 12 13 14 15 17 19 21 23 24 25 25 26 28 29 31 31 28 25 24 25 23 20 19 20 19 18 20 20 21 22 21 19 21 24 23 20 19 20 20 21 22 23 21 20 19
12 13 11 8 5 3 5 6 6 7 10 11 8 5 5 6 8 10 11 10 10 11 12 11 11 12 12 12 12 12 12 12 12 12 14 15 14 12 13 13 13 13 14 14 14 15 17 19 20 21 21 22 22 22 23 23 22 22 23 24 24 23 19 15 15 17 18 18 19 20 21 20 19 19 23 25 21 17 18 20 22 23 23 22 20 18 17
10 11 10 8 7 5 4 5 6 9 11 10 8 7 6 6 9 12 12 10 10 11 11 11 11 12 13 14 13 12 12 11 11 10 11 12 12 12 12 12 12 13 14 14 14 14 16 17 17 17 17 19 19 19 19 18 17 17 18 18 17 16 15 13 13 15 16 16 16 17 18 18 18 21 25 24 19 18 21 23 24 25 23 20 20 20 18
10 10 8 7 7 6 5 5 7 11 13 11 8 6 3 3 7 10 10 10 12 12 11 12 13 12 12 12 12 12 12 11 11 11 11 11 11 11 11 10 11 12 13 13 13 13 14 15 15 14 15 16 17 17 17 16 15 15 15 14 14 15 15 14 13 13 13 13 13 14 16 17 18 18 19 18 18 19 21 22 23 24 23 21 21 20 17
8 7 5 4 3 2 3 3 4 8 10 8 5 4 5 7 8 8 8 9 11 12 12 12 13 13 13 13 12 11 12 12 12 12 12 11 11 11 9 9 10 11 11 11 12 12 14 14 14 14 15 14 14 15 16 15 14 15 14 13 13 15 14 13 12 12 12 12 12 13 14 16 15 15 15 17 19 20 21 22 23 24 23 22 20 18 14
6 5 4 2 1 3 2 2 3 5 6 5 6 7 8 9 8 8 10 10 10 10 11 12 12 13 14 13 13 12 12 12 13 14 14 13 12 11 10 10 11 11 11 11 11 12 12 12 11 12 14 13 13 14 15 14 15 16 14 11 12 13 13 12 11 12 12 11 12 12 13 13 13 14 17 19 21 22 23 24 24 24 23 21 19 16 13
3 2 2 3 1 2 2 3 3 4 5 6 5 6 7 8 9 12 13 13 11 11 11 12 12 13 13 13 14 14 14 14 15 15 15 15 14 13 12 11 11 11 11 10 11 12 11 9 9 10 12 12 13 14 14 14 16 17 15 11 11 12 12 11 12 12 12 12 12 13 14 13 13 16 19 20 21 23 24 24 23 22 22 20 18 16 15
4 3 3 3 4 4 3 2 2 3 4 5 6 8 9 9 11 13 14 14 13 12 11 12 12 13 13 14 14 15 16 17 17 17 17 17 16 16 15 14 13 12 12 11 12 12 11 10 11 12 13 14 15 15 14 14 16 18 17 14 13 13 13 13 13 13 13 13 13 13 13 13 14 17 19 20 21 22 23 23 22 22 21 21 20 19 18
7 7 7 6 6 6 4 2 2 3 4 6 8 9 10 11 12 11 12 14 13 10 9 10 11 10 9 10 13 15 17 17 18 19 18 17 17 18 18 16 15 15 15 15 14 13 12 12 12 13 14 16 17 16 15 16 19 21 20 17 15 14 14 14 14 14 13 13 11 11 11 11 12 15 17 17 18 20 20 20 21 21 21 21 22 22 22
7 7 8 7 6 5 4 3 3 5 6 8 9 9 9 10 10 8 9 12 12 9 8 9 10 10 9 10 13 16 17 17 18 18 18 17 16 16 17 17 18 19 19 19 17 16 15 15 14 14 16 17 16 15 16 17 20 22 22 19 15 14 14 14 13 13 12 11 10 10 11 10 11 13 14 13 14 17 18 19 20 21 22 23 24 25 25
6 5 6 8 8 8 7 6 6 6 7 9 9 9 9 9 8 8 9 11 11 10 10 10 11 12 13 15 16 17 16 16 16 16 17 17 15 14 15 18 20 20 22 22 22 21 20 18 17 17 19 17 15 14 15 16 17 18 18 16 15 15 15 14 13 12 12 12 12 12 13 12 11 11 12 12 13 15 17 19 20 21 22 23 24 25 24
6 5 7 8 9 9 9 8 8 8 7 8 9 8 8 9 9 10 10 11 11 12 13 13 12 12 15 18 19 17 15 14 14 14 15 16 16 16 19 21 21 20 21 22 22 22 23 22 21 21 20 18 15 14 14 14 15 15 13 12 14 15 16 14 13 12 12 13 14 15 15 14 12 11 11 13 14 15 17 19 20 20 20 21 21 22 22
10 9 8 7 8 10 9 9 9 8 6 7 9 9 8 8 10 12 12 12 13 13 13 13 12 12 12 15 16 13 10 9 9 8 9 11 14 17 22 23 20 18 18 17 16 18 21 21 22 22 21 18 16 16 16 16 16 15 12 11 12 13 13 13 13 13 13 13 15 16 15 15 14 13 13 13 14 15 18 19 18 18 18 18 18 19 20
13 13 9 6 5 7 7 5 6 6 5 5 7 8 7 8 10 11 11 12 15 15 14 14 14 12 10 10 9 7 6 6 4 3 4 7 10 14 18 19 18 17 18 17 16 18 18 17 18 21 20 18 17 18 18 16 15 16 16 13 11 10 12 13 14 14 14 14 14 13 13 13 15 16 15 14 15 16 19 19 19 18 18 18 18 19 20
14 13 10 8 7 6 5 3 0 3 6 6 5 4 3 5 8 10 11 13 15 15 14 13 12 10 7 5 4 4 4 4 3 3 6 7 8 8 11 13 14 16 17 16 15 15 15 14 15 18 20 19 18 18 18 16 16 16 16 13 11 11 13 15 17 17 18 17 16 14 14 14 16 17 17 16 16 17 19 20 20 19 19 19 19 19 19
14 14 13 9 7 7 6 5 3 1 3 6 4 2 1 2 5 8 10 11 11 11 10 9 8 6 4 2 2 2 1 1 1 2 5 8 8 8 8 8 10 12 14 13 11 11 12 12 12 15 17 19 19 18 17 17 16 16 15 15 15 16 16 17 19 20 21 20 19 18 18 18 19 19 19 19 19 20 20 20 20 19 19 20 19 18 17
15 15 15 11 5 3 3 5 4 4 4 5 3 3 3 3 3 3 5 7 9 11 9 6 4 3 3 1 2 2 1 1 2 3 5 6 8 9 8 7 8 9 10 10 10 10 10 9 10 11 13 16 17 18 18 18 18 17 16 17 19 21 21 21 22 22 22 22 22 22 21 21 21 21 21 21 22 22 22 20 19 19 20 20 18 17 17
18 17 17 18 17 13 11 9 8 7 7 6 5 2 0 2 2 2 4 5 6 8 7 5 4 4 4 2 0 1 3 5 5 6 6 5 6 7 8 7 7 8 8 8 9 9 9 9 9 9 10 11 14 16 17 18 19 19 18 19 21 22 23 22 21 20 20 21 21 22 23 24 23 23 23 23 23 23 22 19 17 18 20 20 17 17 19
21 21 20 19 19 18 16 14 13 11 10 9 8 6 5 4 5 6 6 4 2 2 1 4 6 6 5 4 3 2 2 6 8 9 8 7 7 8 8 7 7 8 8 8 9 9 8 8 8 8 8 8 10 12 14 16 18 19 20 21 21 21 21 21 19 18 19 20 20 20 21 22 22 22 21 21 23 24 23 20 18 19 21 21 20 19 20
23 24 23 21 20 19 19 17 16 14 12 10 9 9 10 10 9 7 7 6 6 7 6 3 1 1 2 2 1 1 1 3 6 5 5 6 7 9 8 7 7 8 8 9 9 9 9 9 9 9 8 9 9 10 13 16 18 19 19 19 20 20 21 21 21 20 20 20 20 21 22 22 21 20 19 20 22 24 24 22 21 22 24 23 22 22 22
22 24 24 22 21 22 22 21 18 16 15 14 13 15 16 14 10 8 8 9 8 8 8 8 8 8 8 8 6 4 3 3 3 3 2 3 5 6 6 6 7 8 9 9 10 10 11 11 11 10 11 11 12 13 15 17 19 20 19 19 19 20 21 21 21 20 20 20 20 22 22 22 22 20 19 19 21 23 24 25 26 25 24 23 22 22 22
19 22 23 24 23 22 22 22 20 19 17 16 16 17 17 15 12 11 11 11 10 11 12 12 10 8 9 9 8 7 6 5 5 5 5 4 2 1 2 3 4 5 6 7 8 9 10 11 12 12 13 13 14 15 17 18 19 20 20 20 21 21 21 21 21 22 21 20 19 20 22 23 23 22 21 20 21 22 23 25 25 24 22 21 22 23 22
Wind_Direction
250 238 228 207 202 207 207 206 213 218 221 226 229 231 235 242 243 236 235 235 216 193 214 216 209 201 189 186 183 182 187 185 177 179 187 191 195 201 209 214 216 213 213 217 218 218 221 225 226 226 227 228 226 223 224 227 230 233 233 229 227 228 229 229 228 228 230 231 231 234 238 240 241 241 242 243 245 247 250 254 258 261 264 266 267 269 274
245 238 245 231 211 210 212 212 214 219 222 224 227 234 240 241 238 234 241 250 226 203 227 223 197 189 183 180 176 173 180 188 194 196 193 192 194 200 208 215 220 222 220 219 218 219 223 225 226 227 227 226 223 222 224 226 229 231 230 227 226 227 229 228 227 229 230 229 230 235 239 241 242 243 244 245 247 248 251 255 258 262 266 268 269 271 275
251 240 245 240 216 210 215 218 218 218 221 222 221 224 230 232 230 232 242 263 250 214 234 230 173 171 166 162 161 161 170 183 193 200 206 209 206 205 210 215 219 222 222 221 222 221 223 227 229 229 228 226 224 224 225 225 228 228 227 225 225 227 229 227 227 229 229 228 231 236 240 241 243 245 246 248 249 250 253 256 258 262 265 266 267 271 276
249 241 240 239 228 220 219 220 220 218 219 222 221 219 222 223 224 231 241 250 242 221 221 210 180 171 159 157 161 161 176 193 196 196 203 216 219 216 215 215 216 217 217 219 224 225 226 231 234 232 230 227 224 223 222 224 226 227 225 225 225 228 230 228 227 228 228 228 233 238 240 243 246 247 249 250 251 253 255 258 260 262 264 267 270 273 277
248 242 236 243 251 234 219 216 217 216 216 222 223 219 220 223 226 236 242 236 229 223 207 192 193 194 182 181 191 194 200 208 210 208 204 210 218 218 216 217 219 216 213 216 225 229 229 232 234 233 229 225 222 220 220 223 225 226 226 225 226 229 230 228 226 226 227 229 234 238 241 245 248 249 251 253 253 254 256 258 260 262 264 269 273 274 277
284 268 252 257 264 246 222 214 214 215 216 220 223 219 220 223 226 235 242 232 225 225 212 197 203 206 204 218 220 216 220 220 210 204 202 206 213 214 216 222 223 218 213 217 224 229 230 231 230 227 223 220 217 217 218 221 224 226 225 226 227 230 231 229 226 226 228 231 235 238 242 245 249 251 251 253 254 254 255 257 260 262 265 269 273 276 280
282 286 277 274 263 257 251 231 219 218 218 218 222 224 224 223 223 229 237 234 227 226 224 224 225 217 213 223 223 222 230 227 211 205 206 210 216 219 221 224 222 216 215 218 223 227 230 227 222 219 217 214 212 214 216 219 223 225 225 226 229 231 231 228 226 227 230 233 236 239 241 245 249 251 252 253 254 255 255 257 259 261 264 266 268 273 278
268 270 204 234 280 273 262 246 228 222 220 219 219 222 225 223 221 225 230 232 231 228 227 232 236 231 227 231 232 235 237 231 231 236 231 218 217 229 236 231 220 214 217 222 224 228 227 219 214 213 212 210 209 212 215 219 222 224 225 227 230 231 230 227 226 228 231 235 238 240 244 247 248 250 253 254 256 258 257 257 259 260 262 263 267 274 276
276 312 302 286 288 281 254 232 224 219 221 222 216 217 222 220 219 222 225 227 229 227 229 235 238 238 239 243 245 243 227 223 234 243 237 225 213 227 242 240 222 213 219 225 226 224 218 212 210 210 209 208 210 214 218 221 223 224 225 227 230 232 230 226 226 229 233 236 241 244 248 251 252 254 256 256 257 258 257 257 261 261 260 262 269 275 273
316 334 318 294 285 282 244 206 205 210 223 223 216 220 225 219 217 222 222 223 225 226 228 231 234 238 244 247 250 245 233 232 232 234 238 239 225 230 242 240 217 211 219 223 221 214 209 207 207 208 208 209 212 218 223 224 223 223 225 227 231 234 231 227 227 231 234 237 242 247 250 252 255 257 258 257 257 257 256 256 259 259 257 261 269 273 268
308 312 299 280 274 295 310 208 199 210 236 220 206 218 229 220 216 222 224 222 223 224 226 227 229 234 240 245 246 243 244 243 231 225 232 230 218 234 248 241 218 214 219 219 214 208 203 203 204 206 208 212 218 223 227 226 222 222 224 226 231 235 234 231 230 231 235 238 242 246 248 251 254 257 258 256 255 255 255 254 254 257 260 265 268 269 266
293 293 285 282 277 289 309 269 206 211 246 218 198 210 223 210 205 214 220 222 223 222 223 225 227 230 234 239 240 239 238 229 217 219 227 223 217 231 244 236 221 214 209 205 202 198 196 197 201 205 209 215 222 226 227 224 220 220 222 226 230 233 234 234 232 232 234 238 241 245 248 251 254 257 258 258 256 257 259 259 259 261 264 267 267 266 266
282 290 293 292 287 290 294 267 224 216 237 218 209 213 213 201 197 202 210 217 222 223 223 223 226 230 231 232 235 233 220 208 212 221 228 228 222 221 224 223 215 199 187 185 186 188 192 196 202 208 213 218 224 225 222 219 217 218 221 225 228 231 234 235 234 234 236 240 245 248 251 254 256 259 261 261 260 262 264 266 265 263 264 269 269 268 269
277 284 285 286 294 304 296 252 230 218 212 209 207 212 213 209 204 202 205 209 213 217 223 225 225 226 225 224 227 227 215 209 213 217 221 227 220 208 208 210 203 192 188 188 189 193 197 202 207 211 215 219 221 219 215 212 213 216 220 224 227 230 233 235 235 237 240 244 249 252 255 258 260 261 263 264 264 265 264 264 263 261 264 272 275 275 276
272 279 275 278 302 318 306 264 207 180 202 210 214 219 220 227 220 209 207 208 204 204 212 217 219 221 219 219 221 219 215 215 215 213 219 227 216 205 202 201 198 195 195 198 201 202 203 207 209 208 210 212 211 209 207 206 209 214 217 222 225 227 229 232 235 239 242 245 250 254 256 259 259 257 258 261 262 260 258 259 262 265 270 276 277 275 275
242 259 271 289 302 307 303 294 236 195 203 189 174 225 226 235 238 222 215 213 204 195 198 203 212 219 217 214 214 214 218 224 217 209 214 214 203 200 202 201 199 202 205 208 212 214 213 212 208 203 202 203 202 201 201 202 206 210 211 213 217 220 224 227 231 235 240 244 250 253 256 258 257 255 256 256 256 256 257 260 264 268 273 277 278 273 267
241 246 268 300 304 297 293 303 230 212 207 129 105 106 174 204 238 221 209 209 201 185 183 190 201 212 212 212 215 215 218 219 207 199 206 204 188 182 189 194 195 202 210 215 217 217 214 209 204 200 197 196 198 199 199 201 204 206 207 208 210 214 219 224 229 236 243 249 253 255 257 259 259 257 256 255 254 256 258 260 263 268 273 276 274 270 267
260 263 256 268 283 279 238 164 144 181 191 139 116 111 106 109 167 187 184 199 205 195 189 193 204 215 213 215 222 218 211 205 199 199 200 195 184 175 176 180 184 191 198 202 205 206 204 200 199 197 192 191 195 197 198 201 204 205 207 209 211 216 222 229 236 244 250 253 255 257 260 262 262 260 257 255 253 254 257 260 264 270 273 272 266 267 271
259 268 240 232 263 273 242 209 161 168 175 138 125 125 119 111 110 121 138 177 202 206 204 206 215 221 213 209 216 218 213 206 202 201 198 192 185 180 176 176 178 182 185 187 190 193 196 197 197 194 191 190 191 194 197 200 203 207 211 215 218 224 231 239 245 248 252 257 261 264 265 266 265 263 260 258 255 255 257 261 266 270 271 269 267 270 277
253 267 273 254 265 263 239 223 219 233 214 139 120 119 110 94 87 89 99 136 176 193 204 210 214 214 209 208 214 217 216 208 202 203 201 193 182 177 179 180 179 180 181 183 185 188 193 196 196 195 194 192 190 191 195 200 206 213 218 223 228 230 235 241 246 250 255 258 261 263 265 267 267 265 263 262 260 258 257 259 266 272 275 274 271 269 270
260 265 278 266 231 238 241 234 227 229 233 212 142 122 105 78 76 83 86 88 117 156 177 193 205 204 202 209 213 210 211 211 207 205 199 187 174 170 177 183 186 187 187 187 188 191 195 198 199 199 197 193 190 193 199 206 213 221 226 229 232 234 236 240 245 250 254 257 260 263 266 269 269 268 266 265 262 255 250 252 261 269 272 272 269 267 267
282 281 289 270 251 274 275 254 237 241 256 263 260 121 129 116 91 90 91 81 77 92 120 143 174 187 184 192 203 205 207 214 215 209 195 180 169 166 170 180 188 193 197 196 194 195 196 199 202 203 198 194 195 201 209 215 220 227 231 233 236 238 241 244 247 251 254 258 262 265 267 268 269 268 264 261 258 253 249 249 254 261 265 265 265 268 271
282 293 304 295 301 317 318 314 322 306 283 288 320 3 81 132 120 110 110 100 79 63 68 83 96 121 142 154 173 190 195 200 212 214 196 173 161 157 164 179 187 190 197 204 209 214 212 205 204 205 204 203 207 212 217 221 225 229 234 238 241 243 244 246 249 252 254 256 257 256 257 259 262 263 260 255 254 254 253 252 253 256 257 258 260 265 267
284 294 305 301 301 310 316 326 336 313 278 282 310 333 335 271 177 150 133 135 121 87 72 69 70 76 93 117 133 147 162 176 202 216 198 179 175 174 177 186 195 199 201 201 209 224 230 225 221 217 213 212 216 219 222 226 229 231 235 240 244 245 246 249 251 252 253 253 251 251 255 259 262 263 261 255 252 252 254 255 257 257 257 259 264 267 265
289 295 300 294 291 296 299 298 296 286 272 268 274 291 305 288 253 239 300 291 242 182 77 64 63 65 64 81 122 141 150 162 179 190 185 189 201 205 200 199 203 208 209 204 200 205 218 232 239 239 234 229 228 228 230 231 233 236 238 240 243 246 249 251 251 250 250 252 253 258 264 266 266 265 260 254 251 253 255 256 259 260 260 262 267 267 262
300 300 298 293 294 295 291 284 289 288 273 265 277 289 284 270 260 278 310 311 290 274 277 299 352 20 22 29 83 127 143 160 175 181 180 187 196 202 208 212 214 216 218 217 213 211 214 221 228 231 233 234 236 237 237 237 238 240 242 243 246 249 251 250 246 246 249 253 258 263 267 267 265 263 258 253 251 253 256 257 259 259 260 262 264 261 257
311 302 299 303 303 297 288 283 291 293 271 252 260 287 289 275 257 253 269 259 228 246 272 286 294 293 287 291 306 298 206 161 172 183 188 189 189 194 203 211 218 225 225 224 224 224 224 228 230 230 232 236 240 242 244 244 244 245 246 247 250 251 249 244 241 242 247 253 259 263 265 264 264 262 259 253 249 253 257 258 258 260 261 261 258 253 251
307 308 300 299 299 297 296 290 280 279 272 249 235 242 265 274 270 269 281 261 220 215 248 270 277 278 270 263 268 270 265 267 267 245 229 218 208 205 208 210 215 223 226 227 228 228 231 238 245 248 249 250 250 251 252 253 254 253 252 252 252 251 247 243 240 239 243 251 260 264 264 263 262 261 256 249 246 253 259 259 257 260 263 257 249 246 249
323 8 340 308 291 282 281 280 274 271 267 250 234 228 235 247 253 261 288 291 281 272 266 264 272 283 279 270 267 264 260 257 253 250 252 252 244 236 228 222 224 227 230 232 233 233 236 241 245 249 252 252 254 256 258 257 257 256 255 254 252 248 246 246 244 241 243 251 259 262 262 262 261 259 255 248 247 253 258 258 258 261 264 260 252 251 254
315 337 341 313 293 278 267 259 260 268 268 253 237 227 233 239 240 238 247 262 274 282 281 280 286 290 286 283 282 277 272 267 260 252 247 246 250 251 246 241 238 236 235 235 234 232 233 235 238 242 245 245 248 251 254 256 256 254 249 245 241 240 242 244 244 243 247 255 259 261 262 261 259 256 253 252 253 254 254 255 255 257 261 264 262 259 259
313 323 328 321 306 282 260 249 245 252 259 252 239 222 220 220 214 224 238 247 258 270 276 280 284 283 282 283 283 281 279 277 272 266 259 253 248 245 243 243 240 235 232 232 231 229 229 230 232 235 239 242 245 249 253 260 264 262 256 254 256 256 253 248 244 246 251 256 259 261 262 259 255 251 250 252 253 252 254 256 256 256 260 264 262 259 259
310 314 318 324 322 275 240 243 245 241 240 236 223 209 213 211 210 224 240 252 263 270 274 277 276 276 279 281 282 281 279 276 273 272 270 266 259 250 244 242 241 238 236 234 231 229 231 232 232 233 237 241 246 252 258 264 268 267 266 269 273 271 261 249 246 251 256 259 261 262 262 258 249 243 249 253 253 251 255 259 260 262 265 265 262 260 262
307 307 316 338 342 316 266 250 241 224 210 195 185 194 217 233 238 240 244 251 258 264 270 275 274 271 271 271 270 270 269 268 266 267 269 270 267 261 255 252 250 247 245 243 240 239 240 241 240 239 241 245 249 254 259 261 261 261 263 264 266 264 260 257 258 257 257 259 260 260 262 260 247 240 244 250 250 248 252 255 259 265 271 270 267 268 266
309 309 323 343 340 326 315 294 244 210 189 175 180 203 227 251 249 247 249 254 258 260 263 267 269 269 267 265 262 260 258 257 256 257 260 263 263 262 261 261 261 258 255 252 247 244 244 248 250 248 248 252 256 260 260 257 254 256 256 255 257 261 263 263 261 258 254 255 254 252 255 257 251 244 244 249 250 250 252 255 260 268 274 275 273 272 269
309 306 318 338 349 357 354 328 236 202 185 167 167 208 245 253 250 253 260 261 259 260 261 261 264 266 265 263 260 256 252 250 248 247 247 250 253 256 257 260 263 264 263 259 255 251 249 250 251 250 249 252 256 261 264 263 259 258 258 256 257 260 261 258 257 256 254 253 253 251 251 252 250 247 251 256 258 256 255 257 262 268 273 274 272 269 268
312 300 284 279 64 85 103 152 176 191 201 192 184 204 233 252 267 281 282 272 264 263 263 263 264 265 264 262 261 256 248 243 243 244 245 246 249 252 257 263 265 265 264 264 262 259 257 254 251 250 250 250 251 254 258 261 260 258 256 253 253 256 258 258 259 260 261 262 263 263 261 257 251 248 250 255 256 255 255 260 264 266 268 266 262 259 262
309 299 259 241 204 125 150 175 181 200 221 229 235 247 259 270 282 290 290 284 274 266 264 264 265 266 264 261 257 252 246 241 240 240 243 246 249 252 255 259 260 259 260 262 262 259 257 254 250 250 250 250 249 250 251 254 258 257 253 247 249 254 259 263 265 268 270 270 270 270 268 260 251 248 251 253 254 255 258 262 264 263 261 256 252 253 259
279 257 252 245 238 237 231 217 219 238 249 263 277 282 282 284 290 295 294 288 278 270 267 266 266 266 266 263 257 250 247 246 244 243 243 244 247 249 249 249 253 255 256 255 256 257 257 251 248 251 255 256 254 251 249 249 255 258 256 250 248 253 261 269 273 273 273 272 272 273 270 261 249 246 248 251 252 256 261 264 264 261 257 254 255 260 263
266 266 268 258 242 238 236 233 258 285 294 290 287 286 285 286 289 293 289 284 282 277 265 260 261 263 264 264 261 256 251 248 247 246 245 243 243 244 244 243 245 249 251 251 252 255 257 254 250 250 255 257 256 255 254 254 255 257 256 254 253 257 264 269 269 266 267 269 269 266 265 264 258 252 251 251 253 256 260 263 264 262 260 261 265 269 269
254 260 265 262 254 250 248 254 280 295 297 292 291 291 286 279 277 278 279 283 287 284 268 260 261 258 253 255 260 261 260 255 251 249 247 244 241 242 245 244 241 240 244 247 248 249 252 254 251 248 249 253 254 255 257 260 264 265 266 266 266 265 266 267 266 263 264 267 265 260 259 261 259 252 249 249 251 253 258 263 266 267 268 269 270 273 274
256 258 256 256 262 267 270 277 286 290 291 293 294 295 290 283 275 269 273 280 287 288 284 280 273 262 255 257 263 267 270 266 259 252 249 245 239 236 238 240 241 241 243 244 244 244 245 246 246 247 249 253 255 254 255 260 267 271 272 269 266 264 264 266 267 267 264 261 257 254 252 254 255 253 254 257 259 260 264 271 276 279 279 278 275 276 279
265 269 257 254 259 263 266 276 286 292 297 298 293 284 282 283 279 274 276 284 290 291 290 289 282 267 256 256 261 268 273 271 262 252 247 242 235 231 235 240 243 246 248 249 251 252 250 247 245 247 250 251 251 251 252 254 256 259 262 264 266 270 272 270 267 265 263 263 264 263 259 256 258 263 266 268 270 271 272 275 279 283 284 282 278 279 281
257 246 236 243 259 265 269 281 291 295 297 295 289 281 274 272 276 279 279 279 282 284 286 288 287 276 258 251 254 261 269 269 262 255 254 247 233 229 238 246 252 255 258 260 262 262 258 253 248 248 248 247 244 245 248 249 244 240 246 258 267 270 272 272 270 269 268 267 271 272 266 257 256 262 266 269 272 275 276 276 278 280 280 279 277 278 280
260 246 223 204 233 264 276 287 292 292 297 304 303 296 276 257 262 272 276 274 275 277 279 282 285 280 263 246 240 235 238 248 245 223 235 248 240 233 240 249 254 257 260 261 260 260 260 256 250 246 246 243 239 241 247 251 245 237 238 244 250 253 259 266 272 273 270 267 268 270 263 252 250 256 263 266 269 272 275 276 276 275 275 274 274 275 278
260 248 225 196 194 222 242 239 273 328 321 320 326 331 294 251 248 254 262 270 277 280 279 278 279 276 261 244 233 216 220 244 252 213 213 231 241 243 245 249 252 255 259 263 265 266 267 262 250 244 243 242 241 242 247 253 255 251 246 243 243 250 260 269 273 272 268 265 263 262 257 251 250 254 258 261 264 266 269 271 272 272 273 273 275 277 279
261 252 243 221 180 175 206 220 188 130 302 297 308 352 3 265 244 244 252 265 281 291 286 276 272 273 266 241 220 206 203 244 291 249 230 231 236 242 250 257 260 260 262 266 269 270 269 264 254 245 242 242 244 245 246 251 257 261 259 256 256 260 266 274 277 273 266 260 258 256 252 250 251 255 258 261 264 266 266 266 268 270 271 272 274 276 277
260 256 253 249 228 176 208 241 233 216 242 274 307 3 7 337 313 276 267 288 311 322 319 304 288 299 306 257 195 175 146 168 239 261 249 235 238 248 257 265 268 266 265 268 271 270 270 268 262 254 247 243 243 243 243 246 251 257 260 263 266 269 273 278 279 274 265 259 258 258 257 257 258 261 264 267 269 269 266 265 264 265 265 267 271 275 277
254 255 257 262 268 271 267 257 245 232 234 244 244 223 140 358 322 248 250 287 323 337 340 339 337 332 334 341 37 142 155 175 213 251 263 254 250 257 260 261 265 270 272 276 279 281 282 281 275 268 258 249 243 241 241 243 246 250 254 259 264 269 273 276 277 273 267 262 259 259 261 263 265 267 270 272 272 269 267 266 265 265 265 267 270 275 279
250 250 252 256 261 262 260 257 256 257 259 260 252 228 208 215 233 235 235 232 196 173 240 336 346 349 355 10 23 30 166 187 209 239 262 267 260 260 263 266 270 274 275 275 274 274 275 275 275 274 268 256 247 243 243 243 245 247 250 253 257 263 267 269 269 268 268 270 269 267 268 270 270 270 271 270 269 270 272 272 266 263 265 267 270 272 275
251 252 253 253 251 250 249 251 256 261 263 262 251 232 226 233 240 238 233 222 199 185 187 196 209 223 234 231 216 217 214 200 207 230 265 276 268 265 271 277 280 280 277 274 272 271 269 267 266 263 259 253 247 242 242 246 251 254 256 257 259 261 264 267 268 269 269 270 272 274 275 275 274 273 270 266 266 270 275 274 268 264 264 265 266 269 272
249 250 252 253 252 250 248 247 248 250 251 250 245 239 238 239 236 228 228 233 223 206 201 203 202 208 223 232 231 231 236 214 185 182 244 281 282 285 289 289 285 282 277 271 268 266 264 263 262 259 255 253 251 248 247 250 256 261 264 264 263 263 265 268 271 270 268 268 271 274 276 277 278 277 275 269 266 267 269 270 270 271 270 268 268 271 274
250 252 253 253 251 249 248 245 242 240 241 244 246 246 244 239 230 224 229 235 228 218 217 222 223 227 236 242 245 250 250 234 211 210 225 235 245 289 291 269 263 267 270 271 273 272 268 262 259 258 257 254 254 255 256 256 258 261 264 266 267 267 269 270 270 270 270 271 273 275 277 278 279 278 276 272 269 268 269 272 275 277 277 275 275 275 274
Height
3005 3005 3006 3007 3009 3009 3011 3012 3013 3014 3015 3014 3014 3014 3015 3017 3017 3015 3015 3016 3017 3019 3020 3020 3021 3023 3024 3026 3028 3029 3031 3033 3034 3036 3038 3040 3043 3044 3044 3046 3049 3052 3054 3057 3059 3060 3062 3064 3067 3069 3072 3075 3077 3080 3081 3082 3084 3085 3087 3089 3091 3094 3095 3097 3099 3101 3103 3105 3107 3108 3109 3111 3112 3113 3115 3116 3117 3119 3120 3121 3122 3123 3124 3124 3124 3124 3125
3006 3006 3006 3006 3008 3009 3010 3011 3011 3012 3013 3013 3014 3015 3015 3016 3017 3015 3015 3017 3018 3019 3020 3019 3020 3021 3023 3025 3027 3028 3030 3033 3035 3037 3038 3039 3040 3042 3043 3045 3048 3050 3052 3054 3056 3057 3059 3061 3063 3066 3069 3071 3074 3076 3077 3079 3081 3083 3085 3086 3088 3090 3092 3094 3096 3098 3100 3103 3104 3106 3107 3109 3110 3111 3112 3114 3116 3117 3119 3119 3120 3121 3122 3122 3121 3122 3122
3006 3005 3006 3006 3006 3007 3008 3008 3009 3011 3012 3012 3013 3013 3014 3015 3016 3015 3016 3017 3018 3020 3020 3020 3020 3020 3022 3025 3027 3029 3031 3033 3035 3037 3038 3039 3039 3040 3042 3044 3046 3048 3050 3052 3053 3054 3056 3058 3061 3063 3066 3068 3070 3072 3074 3076 3078 3080 3082 3084 3086 3087 3089 3091 3093 3095 3098 3100 3102 3103 3105 3107 3108 3109 3110 3112 3114 3115 3116 3117 3118 3118 3119 3119 3119 3120 3120
3005 3004 3005 3005 3005 3005 3005 3006 3007 3008 3009 3009 3010 3011 3012 3013 3014 3014 3016 3018 3019 3020 3021 3022 3022 3023 3023 3025 3027 3029 3031 3033 3034 3035 3036 3037 3038 3039 3040 3042 3043 3045 3047 3049 3050 3051 3053 3055 3058 3061 3063 3065 3067 3069 3071 3073 3075 3077 3079 3081 3083 3084 3086 3088 3090 3093 3095 3097 3099 3101 3103 3104 3106 3107 3108 3110 3112 3113 3114 3114 3115 3116 3116 3116 3117 3117 3117
3004 3004 3004 3003 3004 3002 2999 2999 3002 3004 3006 3007 3008 3010 3011 3012 3013 3013 3015 3017 3019 3020 3021 3021 3023 3024 3025 3027 3028 3029 3031 3032 3032 3033 3035 3036 3036 3037 3038 3039 3041 3042 3044 3046 3048 3049 3050 3053 3056 3058 3060 3062 3064 3066 3068 3070 3072 3074 3076 3078 3080 3081 3083 3085 3088 3091 3093 3095 3097 3099 3101 3102 3103 3105 3106 3107 3109 3110 3111 3112 3112 3113 3114 3114 3114 3114 3114
3004 3004 3002 3002 3002 2998 2994 2995 2999 3002 3004 3006 3007 3007 3009 3011 3012 3013 3014 3017 3019 3020 3020 3022 3023 3025 3026 3028 3028 3029 3030 3031 3030 3031 3033 3035 3035 3035 3036 3037 3039 3041 3043 3044 3044 3046 3048 3051 3053 3056 3057 3059 3062 3064 3066 3068 3070 3072 3074 3075 3077 3079 3080 3083 3086 3088 3090 3092 3095 3097 3099 3100 3101 3102 3104 3105 3106 3108 3109 3109 3110 3110 3111 3111 3111 3111 3112
3005 3004 3004 3003 3001 2996 2995 2997 3000 3001 3003 3005 3006 3006 3007 3009 3011 3012 3013 3015 3017 3018 3019 3021 3023 3025 3026 3026 3027 3028 3029 3028 3029 3030 3032 3033 3034 3034 3035 3036 3037 3040 3041 3041 3041 3043 3046 3048 3050 3052 3054 3057 3059 3061 3063 3066 3067 3069 3071 3073 3074 3076 3078 3081 3084 3086 3088 3090 3093 3095 3096 3098 3099 3100 3101 3102 3104 3105 3106 3107 3107 3108 3108 3108 3108 3108 3108
3005 3005 3005 3004 3000 2997 2997 2998 2998 2999 3000 3002 3004 3004 3005 3007 3009 3011 3012 3013 3015 3017 3018 3020 3022 3024 3025 3024 3024 3026 3027 3026 3027 3029 3030 3032 3032 3032 3033 3033 3034 3037 3038 3038 3040 3042 3044 3045 3048 3050 3052 3054 3057 3059 3061 3063 3065 3066 3068 3070 3072 3074 3076 3079 3081 3083 3086 3088 3090 3092 3094 3095 3097 3097 3098 3100 3102 3103 3104 3104 3104 3105 3105 3106 3105 3105 3105
3004 3004 3004 3003 3000 2997 2996 2995 2996 2997 2998 3000 3001 3001 3002 3005 3007 3009 3011 3012 3014 3015 3016 3018 3020 3022 3023 3022 3021 3024 3025 3024 3025 3028 3028 3030 3031 3031 3031 3031 3032 3035 3036 3037 3038 3040 3041 3043 3045 3048 3050 3052 3054 3057 3058 3060 3062 3064 3066 3068 3070 3072 3074 3077 3079 3081 3084 3086 3088 3090 3091 3093 3094 3095 3096 3097 3099 3100 3100 3101 3102 3102 3103 3103 3103 3103 3103
3003 3003 3003 3002 3000 2996 2993 2993 2994 2995 2995 2997 2999 2999 3000 3002 3005 3007 3008 3010 3012 3013 3014 3015 3018 3021 3021 3019 3019 3021 3022 3022 3025 3027 3027 3028 3030 3029 3028 3028 3030 3032 3033 3034 3036 3037 3039 3041 3043 3046 3048 3050 3052 3054 3055 3058 3060 3062 3064 3066 3067 3069 3072 3075 3077 3079 3082 3084 3086 3087 3089 3090 3091 3092 3093 3095 3096 3096 3097 3098 3099 3099 3099 3100 3100 3100 3100
3003 3003 3004 3003 3000 2996 2993 2992 2992 2993 2993 2995 2998 2999 2999 3000 3003 3005 3006 3007 3009 3011 3012 3014 3017 3018 3017 3017 3018 3019 3019 3020 3022 3024 3025 3027 3028 3027 3025 3026 3027 3027 3028 3031 3032 3034 3037 3039 3041 3044 3046 3048 3050 3051 3054 3056 3059 3060 3062 3064 3066 3068 3070 3073 3075 3078 3080 3082 3084 3085 3087 3087 3088 3089 3090 3092 3093 3093 3094 3096 3096 3096 3096 3097 3098 3098 3097
3003 3003 3003 3002 3000 2997 2994 2992 2992 2993 2994 2996 2998 2998 2997 2997 2999 3001 3003 3005 3006 3008 3010 3012 3014 3014 3014 3015 3016 3016 3016 3018 3020 3021 3022 3024 3025 3024 3024 3025 3024 3024 3026 3028 3030 3032 3035 3037 3040 3042 3044 3046 3047 3050 3052 3055 3057 3059 3061 3062 3064 3066 3068 3071 3073 3076 3078 3080 3082 3083 3084 3085 3086 3086 3088 3089 3089 3090 3091 3092 3093 3093 3094 3094 3094 3094 3094
3002 3002 3001 2999 2997 2995 2994 2994 2992 2992 2994 2996 2996 2994 2994 2995 2996 2997 2999 3002 3004 3006 3008 3009 3010 3011 3012 3013 3013 3014 3015 3016 3018 3019 3020 3021 3022 3023 3023 3023 3024 3024 3026 3028 3029 3031 3034 3035 3037 3039 3042 3044 3046 3049 3051 3053 3055 3057 3059 3061 3063 3064 3066 3069 3072 3074 3076 3078 3079 3080 3081 3082 3083 3083 3084 3085 3086 3087 3087 3088 3089 3089 3090 3091 3091 3091 3091
3001 3001 3000 2998 2995 2993 2993 2993 2992 2991 2993 2995 2993 2992 2994 2994 2994 2995 2997 2998 3000 3003 3005 3007 3008 3009 3009 3010 3011 3012 3014 3014 3016 3017 3018 3018 3020 3020 3020 3021 3023 3024 3025 3027 3028 3030 3032 3034 3036 3038 3041 3043 3045 3047 3049 3051 3053 3055 3057 3059 3061 3063 3065 3067 3070 3072 3074 3075 3076 3077 3078 3079 3079 3080 3081 3082 3083 3083 3084 3084 3085 3086 3087 3088 3088 3088 3088
2999 2999 2999 2997 2995 2993 2992 2992 2991 2990 2991 2992 2992 2992 2993 2994 2994 2995 2996 2997 2997 2999 3002 3005 3006 3005 3006 3008 3010 3010 3011 3012 3013 3014 3015 3016 3017 3018 3018 3019 3021 3023 3024 3026 3027 3029 3031 3033 3035 3037 3039 3041 3043 3045 3047 3049 3052 3054 3056 3058 3060 3062 3064 3065 3068 3070 3071 3072 3073 3074 3075 3076 3077 3077 3078 3079 3080 3080 3081 3081 3082 3084 3085 3085 3085 3086 3086
2998 2998 2998 2996 2994 2993 2993 2992 2991 2991 2991 2990 2991 2993 2993 2993 2993 2994 2995 2996 2997 2997 3000 3003 3003 3002 3004 3006 3007 3008 3009 3010 3010 3011 3013 3014 3014 3015 3016 3017 3019 3021 3023 3025 3027 3029 3030 3032 3034 3036 3038 3040 3042 3044 3046 3048 3050 3052 3054 3056 3058 3060 3062 3064 3066 3067 3069 3070 3071 3072 3072 3073 3074 3075 3075 3076 3077 3077 3077 3079 3080 3082 3083 3083 3083 3083 3083
2997 2997 2997 2995 2994 2993 2993 2991 2990 2991 2990 2988 2988 2990 2992 2993 2993 2993 2993 2995 2997 2997 2998 2999 2999 3000 3003 3004 3005 3006 3006 3006 3008 3009 3011 3011 3012 3012 3013 3015 3017 3020 3022 3024 3026 3028 3030 3031 3033 3034 3036 3038 3041 3043 3045 3047 3049 3051 3053 3055 3056 3058 3060 3062 3064 3065 3066 3068 3068 3069 3070 3071 3071 3072 3072 3073 3073 3074 3075 3076 3078 3078 3079 3079 3080 3080 3080
2996 2995 2995 2995 2994 2993 2993 2992 2990 2989 2989 2988 2987 2987 2989 2990 2991 2991 2991 2993 2995 2996 2996 2997 2998 3000 3002 3002 3003 3003 3003 3004 3006 3007 3008 3008 3008 3009 3010 3012 3015 3018 3020 3022 3025 3027 3029 3030 3032 3034 3036 3038 3040 3042 3044 3046 3048 3050 3052 3053 3055 3057 3058 3060 3062 3063 3064 3065 3066 3067 3068 3068 3068 3069 3069 3069 3070 3071 3072 3073 3074 3075 3076 3076 3077 3077 3077
2996 2994 2994 2994 2994 2993 2993 2993 2992 2991 2990 2990 2990 2989 2987 2986 2988 2989 2990 2991 2993 2995 2996 2998 2999 3000 3001 3001 3001 3001 3000 3001 3003 3003 3004 3003 3003 3004 3007 3010 3012 3015 3018 3021 3023 3026 3028 3030 3032 3034 3035 3037 3039 3041 3043 3045 3048 3049 3051 3052 3054 3056 3057 3059 3060 3061 3062 3063 3063 3064 3065 3065 3065 3066 3066 3067 3067 3068 3069 3071 3071 3072 3073 3073 3074 3074 3074
2996 2994 2992 2992 2992 2993 2992 2993 2992 2992 2992 2992 2992 2992 2991 2987 2986 2988 2990 2990 2992 2993 2995 2997 2997 2998 2999 2999 2999 2999 2999 2999 3000 3001 3003 3002 3001 3002 3005 3007 3010 3013 3016 3019 3022 3024 3027 3029 3031 3033 3035 3036 3038 3040 3042 3044 3046 3048 3049 3051 3053 3054 3056 3057 3058 3058 3059 3060 3061 3061 3062 3062 3063 3063 3064 3064 3065 3066 3067 3068 3069 3070 3071 3071 3071 3071 3071
2995 2993 2991 2990 2990 2991 2991 2991 2991 2990 2990 2991 2990 2992 2994 2992 2988 2988 2990 2991 2991 2992 2994 2995 2995 2996 2997 2998 2998 2999 2999 2998 2999 3001 3003 3001 2999 2999 3002 3006 3009 3012 3015 3017 3020 3023 3026 3029 3031 3032 3034 3036 3037 3039 3041 3043 3045 3046 3048 3050 3051 3052 3053 3055 3055 3056 3056 3057 3058 3059 3059 3060 3060 3061 3061 3062 3063 3063 3064 3065 3067 3067 3068 3068 3068 3068 3069
2993 2991 2990 2990 2991 2991 2991 2991 2991 2990 2991 2992 2991 2990 2992 2994 2992 2991 2991 2992 2992 2993 2994 2995 2995 2995 2996 2997 2998 2999 2999 2999 2999 3000 3000 2998 2996 2997 3001 3004 3008 3012 3015 3018 3020 3023 3025 3027 3029 3031 3033 3035 3037 3039 3040 3042 3043 3044 3046 3048 3049 3050 3051 3052 3053 3054 3054 3055 3056 3056 3057 3057 3058 3058 3059 3059 3060 3061 3062 3063 3064 3065 3066 3066 3065 3066 3066
2992 2990 2990 2991 2992 2993 2992 2990 2991 2992 2993 2993 2992 2990 2991 2993 2993 2993 2993 2994 2994 2993 2993 2994 2996 2996 2996 2996 2997 2998 2999 2998 2997 2997 2996 2994 2994 2996 3000 3004 3007 3011 3015 3018 3021 3023 3024 3026 3028 3030 3032 3034 3036 3037 3038 3040 3041 3042 3044 3045 3046 3047 3048 3049 3050 3051 3051 3052 3053 3054 3054 3055 3055 3055 3056 3056 3057 3058 3059 3060 3062 3063 3063 3063 3063 3064 3064
2991 2990 2990 2991 2992 2993 2993 2991 2991 2992 2992 2993 2993 2992 2993 2994 2994 2994 2995 2996 2996 2995 2994 2994 2995 2996 2997 2997 2998 2998 2998 2998 2997 2995 2994 2994 2995 2998 3001 3004 3007 3011 3014 3017 3021 3023 3025 3026 3027 3028 3030 3032 3034 3036 3037 3037 3038 3040 3041 3042 3042 3044 3045 3046 3047 3047 3048 3049 3050 3050 3051 3052 3052 3053 3053 3053 3054 3056 3057 3058 3059 3060 3060 3061 3061 3061 3061
2991 2991 2991 2992 2992 2992 2991 2991 2991 2991 2991 2992 2993 2993 2994 2995 2996 2996 2996 2997 2997 2997 2996 2996 2995 2996 2997 2998 2999 2999 2999 2998 2997 2997 2996 2997 2999 3001 3003 3005 3007 3010 3013 3016 3019 3022 3024 3026 3027 3028 3030 3031 3032 3034 3035 3035 3036 3037 3038 3039 3039 3040 3042 3043 3044 3044 3045 3046 3047 3047 3048 3048 3049 3050 3050 3051 3052 3053 3055 3056 3056 3057 3057 3058 3058 3058 3058
2991 2992 2992 2992 2991 2991 2991 2991 2991 2992 2992 2992 2993 2993 2994 2994 2996 2996 2997 2997 2998 2998 2998 2998 2998 2998 2999 3000 3000 3000 3000 2999 2999 2999 2999 3000 3001 3003 3005 3007 3008 3011 3013 3015 3017 3020 3022 3024 3026 3028 3029 3030 3030 3031 3032 3033 3034 3034 3035 3035 3035 3037 3039 3040 3040 3041 3042 3043 3044 3044 3045 3045 3046 3047 3047 3048 3049 3050 3051 3052 3053 3054 3054 3055 3055 3056 3056
2990 2991 2991 2991 2990 2990 2991 2991 2992 2993 2993 2993 2993 2994 2994 2995 2995 2995 2996 2997 2997 2997 2997 2998 2999 3000 3000 3001 3001 3001 3001 3001 3001 3001 3001 3002 3003 3004 3006 3008 3009 3011 3013 3015 3016 3018 3019 3020 3022 3024 3025 3027 3027 3028 3028 3029 3030 3030 3031 3032 3032 3033 3035 3036 3036 3037 3039 3040 3041 3041 3042 3042 3043 3043 3044 3045 3046 3047 3048 3050 3051 3051 3051 3052 3053 3053 3053
2990 2991 2991 2990 2990 2990 2990 2991 2992 2992 2992 2993 2993 2994 2995 2995 2995 2995 2995 2996 2996 2996 2996 2997 2998 3000 3000 3001 3001 3001 3002 3002 3002 3003 3003 3003 3004 3005 3006 3008 3009 3010 3011 3013 3014 3015 3017 3018 3018 3020 3021 3023 3024 3024 3025 3026 3027 3027 3027 3028 3029 3030 3031 3031 3032 3034 3035 3036 3038 3039 3039 3039 3040 3040 3041 3042 3044 3045 3046 3047 3048 3048 3049 3049 3050 3050 3050
2990 2991 2990 2989 2989 2989 2989 2990 2991 2991 2992 2992 2993 2994 2994 2994 2995 2995 2995 2995 2995 2995 2996 2996 2998 2999 2999 3000 3001 3001 3001 3002 3003 3003 3004 3005 3005 3005 3006 3007 3008 3009 3010 3011 3012 3013 3014 3015 3016 3017 3018 3019 3020 3021 3021 3022 3022 3022 3023 3025 3026 3026 3026 3026 3028 3031 3032 3033 3035 3036 3036 3036 3037 3037 3038 3039 3041 3042 3043 3044 3045 3045 3046 3046 3047 3047 3048
2988 2990 2990 2989 2988 2988 2988 2989 2989 2990 2990 2991 2991 2993 2993 2993 2994 2994 2994 2995 2995 2995 2995 2996 2997 2998 2998 2998 2999 3000 3000 3000 3001 3002 3004 3005 3005 3005 3006 3006 3007 3007 3008 3009 3010 3012 3013 3014 3015 3015 3016 3017 3018 3018 3018 3018 3018 3019 3020 3021 3021 3022 3022 3023 3025 3028 3030 3030 3032 3033 3033 3033 3034 3034 3035 3037 3038 3039 3040 3041 3042 3043 3043 3043 3044 3045 3046
2985 2987 2988 2988 2987 2986 2987 2987 2988 2989 2989 2989 2990 2992 2993 2993 2993 2993 2993 2994 2994 2994 2994 2995 2996 2996 2996 2997 2998 2998 2998 2999 2999 2999 3001 3002 3003 3004 3004 3005 3005 3006 3006 3007 3009 3010 3011 3012 3013 3013 3014 3015 3015 3016 3016 3016 3017 3018 3019 3019 3019 3020 3021 3022 3024 3026 3027 3028 3029 3029 3030 3030 3030 3032 3033 3034 3035 3036 3037 3038 3039 3040 3040 3040 3041 3042 3043
2986 2985 2985 2986 2986 2985 2985 2985 2986 2987 2988 2988 2989 2991 2991 2992 2992 2992 2992 2993 2993 2993 2993 2994 2994 2995 2995 2996 2997 2997 2997 2997 2997 2997 2998 2999 3000 3001 3002 3002 3003 3004 3005 3005 3007 3008 3008 3009 3010 3011 3011 3012 3012 3013 3013 3014 3015 3016 3017 3017 3018 3019 3020 3021 3022 3023 3024 3025 3025 3026 3026 3027 3028 3029 3031 3031 3032 3033 3034 3035 3035 3037 3037 3037 3038 3039 3040
2987 2985 2984 2984 2984 2984 2984 2984 2985 2986 2986 2986 2988 2989 2990 2990 2991 2991 2991 2992 2992 2992 2992 2993 2994 2994 2994 2995 2995 2995 2995 2996 2996 2996 2996 2996 2997 2998 2998 2999 3000 3000 3001 3002 3004 3004 3005 3005 3006 3007 3008 3008 3009 3010 3010 3011 3012 3012 3014 3015 3016 3016 3017 3018 3019 3020 3021 3021 3022 3023 3023 3024 3025 3026 3028 3028 3029 3031 3032 3032 3032 3033 3034 3034 3034 3035 3037
2986 2986 2984 2984 2984 2984 2983 2983 2984 2985 2985 2985 2987 2988 2989 2989 2989 2989 2990 2991 2991 2991 2991 2992 2992 2992 2993 2993 2993 2994 2994 2994 2995 2994 2994 2995 2995 2995 2996 2996 2996 2996 2997 2999 3000 3001 3001 3001 3002 3004 3005 3005 3006 3007 3008 3009 3010 3010 3011 3013 3014 3014 3015 3016 3017 3018 3018 3019 3019 3020 3021 3022 3022 3023 3024 3025 3026 3027 3029 3029 3030 3030 3030 3030 3031 3031 3033
2985 2985 2985 2985 2985 2984 2984 2983 2984 2985 2985 2986 2987 2988 2989 2988 2987 2988 2989 2989 2989 2989 2989 2990 2990 2990 2991 2991 2991 2992 2992 2993 2993 2993 2993 2993 2994 2994 2994 2995 2995 2995 2995 2996 2997 2998 2998 2999 3000 3001 3002 3003 3004 3004 3005 3007 3007 3008 3010 3011 3012 3011 3012 3014 3015 3015 3016 3017 3017 3018 3019 3019 3020 3021 3022 3022 3023 3024 3025 3026 3027 3027 3027 3027 3027 3028 3030
2984 2984 2984 2985 2985 2985 2985 2984 2984 2985 2986 2986 2987 2987 2987 2987 2986 2987 2987 2987 2987 2987 2987 2987 2988 2988 2988 2989 2989 2990 2990 2991 2991 2991 2992 2992 2992 2993 2993 2993 2993 2993 2993 2994 2995 2996 2997 2998 2999 2999 3000 3001 3002 3002 3003 3004 3004 3005 3007 3010 3010 3010 3010 3012 3012 3013 3014 3014 3015 3016 3016 3017 3017 3018 3019 3020 3021 3022 3023 3023 3024 3024 3024 3024 3025 3026 3027
2984 2984 2984 2985 2985 2985 2985 2985 2985 2985 2986 2986 2986 2986 2986 2985 2985 2985 2985 2984 2985 2985 2985 2985 2986 2986 2986 2986 2987 2987 2987 2988 2989 2989 2989 2990 2990 2991 2991 2991 2991 2991 2992 2993 2993 2994 2995 2996 2997 2998 2998 2998 2999 3000 3002 3002 3002 3002 3005 3007 3008 3008 3008 3009 3010 3011 3011 3012 3012 3013 3014 3014 3015 3016 3017 3018 3018 3019 3020 3020 3021 3021 3021 3022 3022 3023 3023
2984 2984 2984 2984 2985 2985 2985 2985 2985 2985 2985 2985 2985 2984 2984 2984 2984 2984 2983 2982 2982 2983 2983 2983 2983 2983 2983 2983 2983 2984 2984 2985 2986 2986 2987 2988 2988 2989 2989 2989 2990 2990 2991 2991 2992 2993 2994 2995 2995 2996 2996 2997 2997 2998 3000 3001 3000 3000 3001 3004 3005 3005 3006 3007 3007 3008 3009 3009 3010 3010 3011 3012 3013 3013 3014 3015 3016 3016 3016 3017 3017 3018 3018 3019 3019 3020 3021
2983 2983 2983 2983 2984 2984 2984 2984 2984 2984 2984 2984 2984 2983 2983 2983 2983 2982 2981 2980 2980 2981 2981 2980 2981 2981 2981 2981 2980 2980 2981 2982 2983 2983 2984 2985 2986 2986 2986 2988 2988 2989 2989 2989 2991 2992 2992 2993 2994 2994 2995 2995 2995 2997 2998 2999 2998 2997 2998 3001 3003 3003 3004 3004 3005 3005 3006 3006 3007 3008 3009 3009 3010 3011 3011 3012 3013 3014 3014 3014 3015 3015 3016 3016 3017 3017 3019
2981 2981 2982 2982 2982 2982 2982 2982 2982 2983 2983 2982 2982 2982 2981 2981 2981 2981 2980 2978 2978 2978 2978 2978 2978 2979 2979 2978 2978 2978 2978 2979 2980 2980 2982 2983 2984 2984 2984 2985 2986 2986 2986 2987 2989 2990 2990 2991 2992 2992 2992 2993 2994 2995 2996 2997 2996 2995 2995 2998 3000 3001 3001 3002 3002 3003 3003 3004 3005 3005 3006 3007 3008 3008 3009 3009 3010 3011 3012 3012 3013 3013 3013 3014 3014 3015 3015
2980 2980 2981 2981 2981 2981 2981 2981 2981 2981 2981 2981 2980 2980 2980 2979 2979 2979 2978 2977 2976 2976 2976 2976 2976 2977 2977 2976 2976 2976 2977 2977 2978 2978 2979 2980 2982 2982 2982 2981 2982 2983 2984 2984 2986 2987 2988 2988 2989 2989 2990 2991 2993 2994 2994 2995 2995 2994 2994 2995 2997 2998 2998 2999 3000 3000 3001 3001 3002 3003 3004 3005 3005 3006 3006 3007 3008 3009 3009 3010 3010 3011 3011 3011 3011 3012 3012
2979 2980 2980 2980 2980 2979 2979 2980 2979 2979 2979 2979 2978 2978 2978 2978 2977 2977 2976 2975 2975 2974 2974 2974 2974 2974 2975 2974 2974 2975 2975 2975 2975 2976 2977 2978 2980 2980 2978 2977 2979 2981 2981 2982 2983 2984 2985 2985 2986 2986 2987 2989 2991 2992 2992 2992 2993 2992 2993 2993 2994 2995 2995 2996 2997 2998 2998 2999 2999 3001 3002 3003 3003 3004 3004 3005 3005 3006 3006 3007 3008 3008 3008 3008 3008 3008 3008
2978 2978 2978 2978 2978 2978 2978 2978 2977 2977 2977 2977 2976 2976 2976 2976 2976 2975 2975 2974 2974 2973 2973 2972 2972 2972 2972 2972 2972 2973 2974 2974 2974 2975 2975 2976 2977 2976 2975 2975 2978 2979 2979 2980 2981 2981 2981 2982 2983 2984 2985 2987 2989 2989 2989 2990 2990 2990 2991 2991 2992 2992 2992 2993 2994 2995 2996 2996 2997 2998 2999 3000 3001 3001 3002 3003 3003 3003 3003 3004 3005 3005 3005 3005 3005 3005 3006
2977 2976 2976 2976 2977 2977 2977 2976 2976 2976 2976 2975 2975 2975 2974 2974 2974 2974 2974 2973 2972 2972 2972 2971 2970 2970 2971 2970 2971 2971 2972 2972 2973 2974 2974 2974 2974 2974 2974 2975 2976 2977 2977 2978 2978 2977 2978 2979 2980 2981 2982 2984 2986 2986 2987 2987 2988 2988 2988 2989 2989 2990 2990 2991 2992 2993 2993 2994 2994 2995 2996 2997 2998 2998 2999 3000 3000 3000 3000 3000 3001 3002 3002 3002 3003 3003 3003
2975 2976 2975 2974 2974 2976 2976 2975 2975 2975 2975 2974 2974 2974 2973 2973 2973 2973 2972 2971 2971 2971 2970 2970 2969 2969 2969 2969 2970 2971 2971 2972 2972 2973 2973 2973 2973 2973 2973 2974 2974 2975 2975 2975 2976 2976 2976 2977 2978 2979 2980 2981 2983 2984 2984 2985 2985 2986 2986 2987 2988 2988 2988 2989 2990 2990 2991 2991 2992 2993 2993 2994 2994 2995 2996 2997 2997 2997 2997 2997 2998 2998 2999 2999 2999 3000 3000
2974 2974 2974 2973 2972 2973 2974 2974 2974 2974 2974 2973 2973 2973 2973 2972 2972 2972 2971 2970 2970 2970 2969 2969 2968 2968 2968 2969 2969 2970 2971 2971 2972 2972 2972 2972 2972 2972 2972 2972 2973 2973 2973 2974 2974 2975 2975 2975 2976 2977 2977 2978 2980 2981 2982 2982 2983 2983 2984 2985 2985 2986 2986 2986 2987 2988 2988 2988 2989 2990 2990 2991 2992 2992 2993 2993 2993 2994 2994 2995 2995 2995 2995 2996 2996 2997 2997
2972 2973 2974 2973 2972 2971 2972 2973 2973 2973 2973 2973 2972 2972 2972 2972 2972 2971 2971 2970 2970 2969 2969 2968 2968 2968 2968 2968 2969 2970 2970 2971 2971 2971 2970 2970 2970 2971 2971 2971 2972 2972 2972 2972 2973 2973 2973 2974 2974 2975 2976 2976 2977 2978 2979 2980 2981 2981 2982 2982 2982 2982 2983 2984 2984 2984 2985 2985 2986 2986 2987 2988 2988 2989 2990 2990 2990 2990 2991 2992 2992 2993 2993 2993 2994 2994 2995
2970 2970 2971 2971 2971 2971 2971 2971 2971 2971 2971 2971 2971 2971 2971 2971 2971 2970 2970 2970 2970 2970 2970 2969 2969 2969 2968 2968 2969 2969 2970 2971 2971 2970 2969 2969 2969 2970 2970 2970 2970 2971 2971 2971 2972 2972 2972 2972 2973 2973 2974 2975 2976 2976 2977 2978 2979 2980 2980 2980 2980 2980 2981 2981 2981 2981 2981 2982 2983 2983 2983 2984 2985 2986 2986 2986 2986 2986 2987 2988 2990 2990 2989 2990 2991 2991 2992
2967 2968 2968 2968 2968 2969 2969 2969 2970 2970 2970 2970 2970 2970 2970 2970 2969 2969 2969 2969 2970 2970 2971 2971 2970 2970 2969 2969 2969 2969 2970 2970 2970 2970 2969 2969 2969 2969 2969 2969 2970 2970 2970 2971 2971 2971 2971 2971 2972 2972 2973 2974 2975 2975 2976 2976 2977 2977 2978 2978 2978 2979 2979 2979 2979 2979 2979 2979 2980 2980 2981 2981 2982 2983 2983 2983 2983 2983 2984 2986 2987 2986 2986 2986 2987 2988 2988
2964 2964 2964 2965 2965 2966 2967 2968 2968 2969 2969 2969 2969 2969 2968 2968 2968 2968 2969 2969 2969 2969 2970 2970 2969 2969 2969 2968 2969 2969 2969 2969 2969 2970 2969 2968 2968 2968 2968 2968 2969 2969 2970 2970 2970 2970 2970 2971 2971 2972 2972 2973 2974 2974 2975 2974 2974 2975 2976 2976 2976 2977 2977 2977 2977 2977 2978 2978 2977 2977 2978 2978 2979 2979 2980 2981 2980 2980 2980 2982 2983 2983 2983 2983 2983 2984 2984
2960 2961 2961 2962 2963 2964 2964 2965 2966 2967 2967 2968 2967 2967 2966 2967 2968 2968 2968 2968 2969 2969 2968 2967 2967 2967 2968 2968 2968 2968 2968 2968 2968 2968 2968 2968 2968 2968 2968 2968 2968 2968 2968 2969 2969 2969 2969 2970 2970 2971 2971 2972 2972 2972 2973 2973 2973 2973 2973 2974 2974 2974 2974 2974 2975 2975 2975 2975 2975 2975 2975 2975 2976 2976 2977 2978 2978 2978 2978 2978 2979 2979 2980 2980 2980 2980 2981
2957 2957 2958 2959 2960 2961 2961 2962 2963 2964 2964 2965 2965 2965 2965 2966 2967 2967 2967 2967 2968 2967 2967 2967 2967 2968 2968 2968 2968 2968 2967 2967 2967 2966 2966 2966 2966 2966 2966 2966 2967 2967 2967 2967 2968 2968 2968 2968 2969 2969 2969 2970 2970 2970 2970 2970 2971 2971 2971 2972 2972 2972 2972 2972 2972 2972 2973 2973 2974 2973 2973 2973 2973 2973 2974 2975 2975 2976 2976 2975 2975 2976 2977 2977 2977 2977 2978